Time,TemperatureF,DewpointF,PressureIn,WindDirection,WindDirectionDegrees,WindSpeedMPH,WindSpeedGustMPH,Humidity,HourlyPrecipIn,Conditions,Clouds,dailyrainin,SoftwareType,DateUTC
2017-04-29 00:03:00,75.4,65.3,30.10,North,-9999,-999.9,-999.0,71,0.00,,,0.00,open2300-1.11,2017-04-29 04:03:00,
2017-04-29 00:08:00,75.2,65.2,30.10,North,-9999,-999.9,-999.0,71,0.00,,,0.00,open2300-1.11,2017-04-29 04:08:00,
2017-04-29 00:13:00,75.0,65.0,30.10,North,-9999,-999.9,-999.0,71,0.00,,,0.00,open2300-1.11,2017-04-29 04:13:00,
2017-04-29 00:23:00,75.0,65.0,30.10,North,-9999,-999.9,-999.0,71,0.00,,,0.00,open2300-1.11,2017-04-29 04:23:00,
2017-04-29 00:28:00,75.0,65.4,30.10,North,-9999,-999.9,-999.0,72,0.00,,,0.00,open2300-1.11,2017-04-29 04:28:00,
2017-04-29 00:33:00,74.8,64.8,30.10,North,-9999,-999.9,-999.0,71,0.00,,,0.00,open2300-1.11,2017-04-29 04:33:00,
2017-04-29 00:38:00,74.8,64.8,30.10,North,-9999,-999.9,-999.0,71,0.00,,,0.00,open2300-1.11,2017-04-29 04:38:00,
2017-04-29 00:43:00,74.8,65.2,30.09,North,-9999,-999.9,-999.0,72,0.00,,,0.00,open2300-1.11,2017-04-29 04:43:00,
2017-04-29 00:48:00,74.8,64.8,30.10,North,-9999,-999.9,-999.0,71,0.00,,,0.00,open2300-1.11,2017-04-29 04:48:00,
2017-04-29 00:53:00,74.8,64.8,30.10,North,-9999,-999.9,-999.0,71,0.00,,,0.00,open2300-1.11,2017-04-29 04:53:00,
2017-04-29 00:58:00,74.7,64.7,30.10,North,-9999,-999.9,-999.0,71,0.00,,,0.00,open2300-1.11,2017-04-29 04:58:00,
2017-04-29 01:03:00,74.5,64.5,30.10,North,-9999,-999.9,-999.0,71,0.00,,,0.00,open2300-1.11,2017-04-29 05:03:00,
2017-04-29 01:08:00,74.5,64.9,30.10,North,-9999,-999.9,-999.0,72,0.00,,,0.00,open2300-1.11,2017-04-29 05:08:00,
2017-04-29 01:13:00,74.5,64.9,30.10,North,-9999,-999.9,-999.0,72,0.00,,,0.00,open2300-1.11,2017-04-29 05:13:00,
2017-04-29 01:23:00,74.3,64.7,30.10,North,-9999,-999.9,-999.0,72,0.00,,,0.00,open2300-1.11,2017-04-29 05:23:00,
2017-04-29 01:28:00,74.3,64.7,30.10,North,-9999,-999.9,-999.0,72,0.00,,,0.00,open2300-1.11,2017-04-29 05:28:00,
2017-04-29 01:33:00,74.3,64.7,30.10,North,-9999,-999.9,-999.0,72,0.00,,,0.00,open2300-1.11,2017-04-29 05:33:00,
2017-04-29 01:38:00,74.1,64.5,30.10,North,-9999,-999.9,-999.0,72,0.00,,,0.00,open2300-1.11,2017-04-29 05:38:00,
2017-04-29 01:43:00,74.1,64.5,30.10,North,-9999,-999.9,-999.0,72,0.00,,,0.00,open2300-1.11,2017-04-29 05:43:00,
2017-04-29 01:48:00,74.1,64.5,30.10,North,-9999,-999.9,-999.0,72,0.00,,,0.00,open2300-1.11,2017-04-29 05:48:00,
2017-04-29 01:53:00,74.1,64.5,30.10,North,-9999,-999.9,-999.0,72,0.00,,,0.00,open2300-1.11,2017-04-29 05:53:00,
2017-04-29 01:58:00,74.1,64.5,30.10,North,-9999,-999.9,-999.0,72,0.00,,,0.00,open2300-1.11,2017-04-29 05:58:00,
2017-04-29 02:03:00,73.9,64.4,30.09,North,-9999,-999.9,-999.0,72,0.00,,,0.00,open2300-1.11,2017-04-29 06:03:00,
2017-04-29 02:08:00,73.9,64.4,30.09,North,-9999,-999.9,-999.0,72,0.00,,,0.00,open2300-1.11,2017-04-29 06:08:00,
2017-04-29 02:13:00,73.9,64.4,30.10,North,-9999,-999.9,-999.0,72,0.00,,,0.00,open2300-1.11,2017-04-29 06:13:00,
2017-04-29 02:23:00,73.9,64.4,30.09,North,-9999,-999.9,-999.0,72,0.00,,,0.00,open2300-1.11,2017-04-29 06:23:00,
2017-04-29 02:28:00,73.9,64.4,30.09,North,-9999,-999.9,-999.0,72,0.00,,,0.00,open2300-1.11,2017-04-29 06:28:00,
2017-04-29 02:33:00,73.8,64.2,30.09,North,-9999,-999.9,-999.0,72,0.00,,,0.00,open2300-1.11,2017-04-29 06:33:00,
2017-04-29 02:38:00,73.8,64.2,30.09,North,-9999,-999.9,-999.0,72,0.00,,,0.00,open2300-1.11,2017-04-29 06:38:00,
2017-04-29 02:43:00,73.6,64.1,30.08,North,-9999,-999.9,-999.0,72,0.00,,,0.00,open2300-1.11,2017-04-29 06:43:00,
2017-04-29 02:53:00,73.4,63.9,30.08,North,-9999,-999.9,-999.0,72,0.00,,,0.00,open2300-1.11,2017-04-29 06:53:00,
2017-04-29 02:58:00,73.4,63.9,30.08,North,-9999,-999.9,-999.0,72,0.00,,,0.00,open2300-1.11,2017-04-29 06:58:00,
2017-04-29 03:03:00,73.2,63.7,30.08,North,-9999,-999.9,-999.0,72,0.00,,,0.00,open2300-1.11,2017-04-29 07:03:00,
2017-04-29 03:08:00,73.2,63.7,30.08,North,-9999,-999.9,-999.0,72,0.00,,,0.00,open2300-1.11,2017-04-29 07:08:00,
2017-04-29 03:13:00,73.2,63.7,30.08,North,-9999,-999.9,-999.0,72,0.00,,,0.00,open2300-1.11,2017-04-29 07:13:00,
2017-04-29 03:23:00,73.0,63.5,30.07,North,-9999,-999.9,-999.0,72,0.00,,,0.00,open2300-1.11,2017-04-29 07:23:00,
2017-04-29 03:28:00,72.9,63.7,30.07,North,-9999,-999.9,-999.0,73,0.00,,,0.00,open2300-1.11,2017-04-29 07:28:00,
2017-04-29 03:33:00,72.7,63.2,30.07,North,-9999,-999.9,-999.0,72,0.00,,,0.00,open2300-1.11,2017-04-29 07:33:00,
2017-04-29 03:38:00,72.7,63.5,30.06,North,-9999,-999.9,-999.0,73,0.00,,,0.00,open2300-1.11,2017-04-29 07:38:00,
2017-04-29 03:43:00,72.7,63.5,30.06,North,-9999,-999.9,-999.0,73,0.00,,,0.00,open2300-1.11,2017-04-29 07:43:00,
2017-04-29 03:48:00,72.5,63.4,30.06,North,-9999,-999.9,-999.0,73,0.00,,,0.00,open2300-1.11,2017-04-29 07:48:00,
2017-04-29 03:53:00,72.5,63.4,30.06,North,-9999,-999.9,-999.0,73,0.00,,,0.00,open2300-1.11,2017-04-29 07:53:00,
2017-04-29 03:58:00,72.3,63.2,30.06,North,-9999,-999.9,-999.0,73,0.00,,,0.00,open2300-1.11,2017-04-29 07:58:00,
2017-04-29 04:03:00,72.3,63.2,30.05,North,-9999,-999.9,-999.0,73,0.00,,,0.00,open2300-1.11,2017-04-29 08:03:00,
2017-04-29 04:08:00,72.1,63.0,30.05,North,-9999,-999.9,-999.0,73,0.00,,,0.00,open2300-1.11,2017-04-29 08:08:00,
2017-04-29 04:13:00,72.1,63.0,30.05,North,-9999,-999.9,-999.0,73,0.00,,,0.00,open2300-1.11,2017-04-29 08:13:00,
2017-04-29 04:23:00,72.0,62.8,30.05,North,-9999,-999.9,-999.0,73,0.00,,,0.00,open2300-1.11,2017-04-29 08:23:00,
2017-04-29 04:28:00,72.0,63.2,30.05,North,-9999,-999.9,-999.0,74,0.00,,,0.00,open2300-1.11,2017-04-29 08:28:00,
2017-04-29 04:33:00,71.8,63.0,30.05,North,-9999,-999.9,-999.0,74,0.00,,,0.00,open2300-1.11,2017-04-29 08:33:00,
2017-04-29 04:38:00,71.8,63.4,30.05,North,-9999,-999.9,-999.0,75,0.00,,,0.00,open2300-1.11,2017-04-29 08:38:00,
2017-04-29 04:43:00,71.8,63.4,30.05,North,-9999,-999.9,-999.0,75,0.00,,,0.00,open2300-1.11,2017-04-29 08:43:00,
2017-04-29 04:48:00,71.8,63.4,30.05,North,-9999,-999.9,-999.0,75,0.00,,,0.00,open2300-1.11,2017-04-29 08:48:00,
2017-04-29 04:53:00,71.6,63.6,30.06,North,-9999,-999.9,-999.0,76,0.00,,,0.00,open2300-1.11,2017-04-29 08:53:00,
2017-04-29 04:58:00,71.4,63.0,30.06,North,-9999,-999.9,-999.0,75,0.00,,,0.00,open2300-1.11,2017-04-29 08:58:00,
2017-04-29 05:03:00,71.4,63.0,30.06,North,-9999,-999.9,-999.0,75,0.00,,,0.00,open2300-1.11,2017-04-29 09:03:00,
2017-04-29 05:08:00,71.4,63.0,30.06,North,-9999,-999.9,-999.0,75,0.00,,,0.00,open2300-1.11,2017-04-29 09:08:00,
2017-04-29 05:13:00,71.4,63.0,30.07,North,-9999,-999.9,-999.0,75,0.00,,,0.00,open2300-1.11,2017-04-29 09:13:00,
2017-04-29 05:23:00,71.2,62.9,30.07,North,-9999,-999.9,-999.0,75,0.00,,,0.00,open2300-1.11,2017-04-29 09:23:00,
2017-04-29 05:28:00,71.2,62.9,30.07,North,-9999,-999.9,-999.0,75,0.00,,,0.00,open2300-1.11,2017-04-29 09:28:00,
2017-04-29 05:38:00,70.9,62.5,30.08,North,-9999,-999.9,-999.0,75,0.00,,,0.00,open2300-1.11,2017-04-29 09:38:00,
2017-04-29 05:43:00,70.9,62.5,30.08,North,-9999,-999.9,-999.0,75,0.00,,,0.00,open2300-1.11,2017-04-29 09:43:00,
2017-04-29 05:48:00,70.9,62.5,30.08,North,-9999,-999.9,-999.0,75,0.00,,,0.00,open2300-1.11,2017-04-29 09:48:00,
2017-04-29 05:53:00,70.7,62.7,30.08,North,-9999,-999.9,-999.0,76,0.00,,,0.00,open2300-1.11,2017-04-29 09:53:00,
2017-04-29 05:58:00,70.7,62.7,30.08,North,-9999,-999.9,-999.0,76,0.00,,,0.00,open2300-1.11,2017-04-29 09:58:00,
2017-04-29 06:03:00,70.5,62.2,30.09,North,-9999,-999.9,-999.0,75,0.00,,,0.00,open2300-1.11,2017-04-29 10:03:00,
2017-04-29 06:08:00,70.5,62.5,30.10,North,-9999,-999.9,-999.0,76,0.00,,,0.00,open2300-1.11,2017-04-29 10:08:00,
2017-04-29 06:13:00,70.3,62.0,30.09,North,-9999,-999.9,-999.0,75,0.00,,,0.00,open2300-1.11,2017-04-29 10:13:00,
2017-04-29 06:23:00,70.3,62.3,30.10,North,-9999,-999.9,-999.0,76,0.00,,,0.00,open2300-1.11,2017-04-29 10:23:00,
2017-04-29 06:28:00,70.2,62.5,30.10,North,-9999,-999.9,-999.0,77,0.00,,,0.00,open2300-1.11,2017-04-29 10:28:00,
2017-04-29 06:33:00,70.2,62.9,30.11,North,-9999,-999.9,-999.0,78,0.00,,,0.00,open2300-1.11,2017-04-29 10:33:00,
2017-04-29 06:38:00,70.0,62.4,30.12,North,-9999,-999.9,-999.0,77,0.00,,,0.00,open2300-1.11,2017-04-29 10:38:00,
2017-04-29 06:43:00,70.0,62.4,30.12,North,-9999,-999.9,-999.0,77,0.00,,,0.00,open2300-1.11,2017-04-29 10:43:00,
2017-04-29 06:48:00,69.8,62.6,30.13,North,-9999,-999.9,-999.0,78,0.00,,,0.00,open2300-1.11,2017-04-29 10:48:00,
2017-04-29 06:53:00,69.6,62.4,30.13,North,-9999,-999.9,-999.0,78,0.00,,,0.00,open2300-1.11,2017-04-29 10:53:00,
2017-04-29 06:58:00,69.6,62.8,30.13,North,-9999,-999.9,-999.0,79,0.00,,,0.00,open2300-1.11,2017-04-29 10:58:00,
2017-04-29 07:03:00,69.6,62.8,30.13,North,-9999,-999.9,-999.0,79,0.00,,,0.00,open2300-1.11,2017-04-29 11:03:00,
2017-04-29 07:08:00,69.6,62.8,30.13,North,-9999,-999.9,-999.0,79,0.00,,,0.00,open2300-1.11,2017-04-29 11:08:00,
2017-04-29 07:13:00,69.6,62.8,30.14,North,-9999,-999.9,-999.0,79,0.00,,,0.00,open2300-1.11,2017-04-29 11:13:00,
2017-04-29 07:23:00,69.6,63.2,30.14,North,-9999,-999.9,-999.0,80,0.00,,,0.00,open2300-1.11,2017-04-29 11:23:00,
2017-04-29 07:28:00,69.6,63.2,30.14,North,-9999,-999.9,-999.0,80,0.00,,,0.00,open2300-1.11,2017-04-29 11:28:00,
2017-04-29 07:33:00,69.6,63.2,30.14,North,-9999,-999.9,-999.0,80,0.00,,,0.00,open2300-1.11,2017-04-29 11:33:00,
2017-04-29 07:38:00,69.6,63.2,30.14,North,-9999,-999.9,-999.0,80,0.00,,,0.00,open2300-1.11,2017-04-29 11:38:00,
2017-04-29 07:43:00,69.6,63.2,30.14,North,-9999,-999.9,-999.0,80,0.00,,,0.00,open2300-1.11,2017-04-29 11:43:00,
2017-04-29 07:48:00,69.6,63.2,30.14,North,-9999,-999.9,-999.0,80,0.00,,,0.00,open2300-1.11,2017-04-29 11:48:00,
2017-04-29 07:53:00,69.6,63.2,30.14,North,-9999,-999.9,-999.0,80,0.00,,,0.00,open2300-1.11,2017-04-29 11:53:00,
2017-04-29 07:58:00,69.6,63.2,30.14,North,-9999,-999.9,-999.0,80,0.00,,,0.00,open2300-1.11,2017-04-29 11:58:00,
2017-04-29 08:03:00,69.6,63.2,30.14,North,-9999,-999.9,-999.0,80,0.00,,,0.00,open2300-1.11,2017-04-29 12:03:00,
2017-04-29 08:08:00,69.6,63.2,30.15,North,-9999,-999.9,-999.0,80,0.00,,,0.00,open2300-1.11,2017-04-29 12:08:00,
2017-04-29 08:13:00,70.0,63.8,30.14,North,-9999,-999.9,-999.0,81,0.00,,,0.00,open2300-1.11,2017-04-29 12:13:00,
2017-04-29 08:18:00,70.2,64.4,30.15,North,-9999,-999.9,-999.0,82,0.00,,,0.00,open2300-1.11,2017-04-29 12:18:00,
2017-04-29 08:23:00,70.5,64.7,30.16,North,-9999,-999.9,-999.0,82,0.00,,,0.00,open2300-1.11,2017-04-29 12:23:00,
2017-04-29 08:28:00,70.7,64.9,30.16,North,-9999,-999.9,-999.0,82,0.00,,,0.00,open2300-1.11,2017-04-29 12:28:00,
2017-04-29 08:33:00,70.9,64.7,30.15,North,-9999,-999.9,-999.0,81,0.00,,,0.00,open2300-1.11,2017-04-29 12:33:00,
2017-04-29 08:38:00,71.2,65.1,30.17,North,-9999,-999.9,-999.0,81,0.00,,,0.00,open2300-1.11,2017-04-29 12:38:00,
2017-04-29 08:43:00,71.4,64.9,30.17,North,-9999,-999.9,-999.0,80,0.00,,,0.00,open2300-1.11,2017-04-29 12:43:00,
2017-04-29 08:48:00,71.4,64.9,30.17,North,-9999,-999.9,-999.0,80,0.00,,,0.00,open2300-1.11,2017-04-29 12:48:00,
2017-04-29 08:53:00,71.8,65.3,30.16,North,-9999,-999.9,-999.0,80,0.00,,,0.00,open2300-1.11,2017-04-29 12:53:00,
2017-04-29 08:58:00,72.0,65.1,30.17,North,-9999,-999.9,-999.0,79,0.00,,,0.00,open2300-1.11,2017-04-29 12:58:00,
2017-04-29 09:03:00,72.1,65.3,30.16,North,-9999,-999.9,-999.0,79,0.00,,,0.00,open2300-1.11,2017-04-29 13:03:00,
2017-04-29 09:08:00,72.3,65.5,30.16,North,-9999,-999.9,-999.0,79,0.00,,,0.00,open2300-1.11,2017-04-29 13:08:00,
2017-04-29 09:13:00,72.3,65.5,30.17,North,-9999,-999.9,-999.0,79,0.00,,,0.00,open2300-1.11,2017-04-29 13:13:00,
2017-04-29 09:18:00,72.5,65.6,30.17,North,-9999,-999.9,-999.0,79,0.00,,,0.00,open2300-1.11,2017-04-29 13:18:00,
2017-04-29 09:23:00,72.7,65.8,30.16,North,-9999,-999.9,-999.0,79,0.00,,,0.00,open2300-1.11,2017-04-29 13:23:00,
2017-04-29 09:28:00,72.9,66.0,30.17,North,-9999,-999.9,-999.0,79,0.00,,,0.00,open2300-1.11,2017-04-29 13:28:00,
2017-04-29 09:33:00,73.0,66.2,30.17,North,-9999,-999.9,-999.0,79,0.00,,,0.00,open2300-1.11,2017-04-29 13:33:00,
2017-04-29 09:38:00,73.4,66.5,30.17,North,-9999,-999.9,-999.0,79,0.00,,,0.00,open2300-1.11,2017-04-29 13:38:00,
2017-04-29 09:43:00,73.6,66.7,30.17,North,-9999,-999.9,-999.0,79,0.00,,,0.00,open2300-1.11,2017-04-29 13:43:00,
2017-04-29 09:48:00,74.1,67.1,30.17,North,-9999,-999.9,-999.0,79,0.00,,,0.00,open2300-1.11,2017-04-29 13:48:00,
2017-04-29 09:53:00,74.5,67.2,30.17,North,-9999,-999.9,-999.0,78,0.00,,,0.00,open2300-1.11,2017-04-29 13:53:00,
2017-04-29 09:58:00,74.8,67.6,30.17,North,-9999,-999.9,-999.0,78,0.00,,,0.00,open2300-1.11,2017-04-29 13:58:00,
2017-04-29 10:03:00,75.0,67.8,30.17,North,-9999,-999.9,-999.0,78,0.00,,,0.00,open2300-1.11,2017-04-29 14:03:00,
2017-04-29 10:08:00,75.4,67.7,30.17,North,-9999,-999.9,-999.0,77,0.00,,,0.00,open2300-1.11,2017-04-29 14:08:00,
2017-04-29 10:13:00,75.7,67.6,30.17,North,-9999,-999.9,-999.0,76,0.00,,,0.00,open2300-1.11,2017-04-29 14:13:00,
2017-04-29 10:18:00,76.1,68.0,30.17,North,-9999,-999.9,-999.0,76,0.00,,,0.00,open2300-1.11,2017-04-29 14:18:00,
2017-04-29 10:23:00,76.5,67.9,30.17,North,-9999,-999.9,-999.0,75,0.00,,,0.00,open2300-1.11,2017-04-29 14:23:00,
2017-04-29 10:28:00,76.6,68.1,30.17,North,-9999,-999.9,-999.0,75,0.00,,,0.00,open2300-1.11,2017-04-29 14:28:00,
2017-04-29 10:33:00,76.8,67.9,30.16,North,-9999,-999.9,-999.0,74,0.00,,,0.00,open2300-1.11,2017-04-29 14:33:00,
2017-04-29 10:38:00,77.2,68.2,30.16,North,-9999,-999.9,-999.0,74,0.00,,,0.00,open2300-1.11,2017-04-29 14:38:00,
2017-04-29 10:43:00,77.5,68.6,30.16,North,-9999,-999.9,-999.0,74,0.00,,,0.00,open2300-1.11,2017-04-29 14:43:00,
2017-04-29 10:48:00,77.7,68.7,30.15,North,-9999,-999.9,-999.0,74,0.00,,,0.00,open2300-1.11,2017-04-29 14:48:00,
2017-04-29 10:53:00,77.7,68.7,30.16,North,-9999,-999.9,-999.0,74,0.00,,,0.00,open2300-1.11,2017-04-29 14:53:00,
2017-04-29 10:58:00,77.7,68.7,30.16,North,-9999,-999.9,-999.0,74,0.00,,,0.00,open2300-1.11,2017-04-29 14:58:00,
2017-04-29 11:03:00,176.7,99.9,30.16,North,-9999,-999.9,-999.0,110,0.00,,,0.00,open2300-1.11,2017-04-29 15:03:00,
2017-04-29 11:08:00,176.7,99.9,30.17,North,-9999,-999.9,-999.0,110,0.00,,,0.00,open2300-1.11,2017-04-29 15:08:00,
2017-04-29 11:13:00,176.7,99.9,30.17,North,-9999,-999.9,-999.0,110,0.00,,,0.00,open2300-1.11,2017-04-29 15:13:00,
2017-04-29 11:18:00,176.7,99.9,30.17,North,-9999,-999.9,-999.0,110,0.00,,,0.00,open2300-1.11,2017-04-29 15:18:00,
2017-04-29 11:23:00,176.7,99.9,30.16,North,-9999,-999.9,-999.0,110,0.00,,,0.00,open2300-1.11,2017-04-29 15:23:00,
2017-04-29 11:28:00,176.7,99.9,30.16,North,-9999,-999.9,-999.0,110,0.00,,,0.00,open2300-1.11,2017-04-29 15:28:00,
2017-04-29 11:33:00,176.7,99.9,30.16,North,-9999,-999.9,-999.0,110,0.00,,,0.00,open2300-1.11,2017-04-29 15:33:00,
2017-04-29 11:38:00,176.7,99.9,30.16,North,-9999,-999.9,-999.0,110,0.00,,,0.00,open2300-1.11,2017-04-29 15:38:00,
2017-04-29 11:43:00,176.7,99.9,30.16,North,-9999,-999.9,-999.0,110,0.00,,,0.00,open2300-1.11,2017-04-29 15:43:00,
2017-04-29 11:48:00,176.7,99.9,30.16,North,-9999,-999.9,-999.0,110,0.00,,,0.00,open2300-1.11,2017-04-29 15:48:00,
2017-04-29 11:53:00,176.7,99.9,30.16,North,-9999,-999.9,-999.0,110,0.00,,,0.00,open2300-1.11,2017-04-29 15:53:00,
2017-04-29 11:58:00,176.7,99.9,30.16,North,-9999,-999.9,-999.0,110,0.00,,,0.00,open2300-1.11,2017-04-29 15:58:00,
2017-04-29 12:03:00,176.7,99.9,30.16,North,-9999,-999.9,-999.0,110,0.00,,,0.00,open2300-1.11,2017-04-29 16:03:00,
2017-04-29 12:08:00,176.7,99.9,30.15,North,-9999,-999.9,-999.0,110,0.00,,,0.00,open2300-1.11,2017-04-29 16:08:00,
2017-04-29 12:13:00,176.7,99.9,30.15,North,-9999,-999.9,-999.0,110,0.00,,,0.00,open2300-1.11,2017-04-29 16:13:00,
2017-04-29 12:18:00,176.7,99.9,30.15,North,-9999,-999.9,-999.0,110,0.00,,,0.00,open2300-1.11,2017-04-29 16:18:00,
2017-04-29 12:23:00,83.1,70.5,30.15,North,-9999,-999.9,-999.0,66,0.00,,,0.00,open2300-1.11,2017-04-29 16:23:00,
2017-04-29 12:28:00,83.1,70.1,30.15,North,-9999,-999.9,-999.0,65,0.00,,,0.00,open2300-1.11,2017-04-29 16:28:00,
2017-04-29 12:33:00,83.1,70.1,30.15,North,-9999,-999.9,-999.0,65,0.00,,,0.00,open2300-1.11,2017-04-29 16:33:00,
2017-04-29 12:38:00,83.1,70.1,30.15,North,-9999,-999.9,-999.0,65,0.00,,,0.00,open2300-1.11,2017-04-29 16:38:00,
2017-04-29 12:43:00,176.7,99.9,30.14,North,-9999,-999.9,-999.0,110,0.00,,,0.00,open2300-1.11,2017-04-29 16:43:00,
2017-04-29 12:48:00,176.7,99.9,30.14,North,-9999,-999.9,-999.0,110,0.00,,,0.00,open2300-1.11,2017-04-29 16:48:00,
2017-04-29 12:53:00,176.7,99.9,30.14,North,-9999,-999.9,-999.0,110,0.00,,,0.00,open2300-1.11,2017-04-29 16:53:00,
2017-04-29 12:58:00,176.7,99.9,30.14,North,-9999,-999.9,-999.0,110,0.00,,,0.00,open2300-1.11,2017-04-29 16:58:00,
2017-04-29 13:03:00,176.7,99.9,30.15,North,-9999,-999.9,-999.0,110,0.00,,,0.00,open2300-1.11,2017-04-29 17:03:00,
2017-04-29 13:08:00,176.7,99.9,30.14,North,-9999,-999.9,-999.0,110,0.00,,,0.00,open2300-1.11,2017-04-29 17:08:00,
2017-04-29 13:13:00,176.7,99.9,30.14,North,-9999,-999.9,-999.0,110,0.00,,,0.00,open2300-1.11,2017-04-29 17:13:00,
2017-04-29 13:18:00,176.7,99.9,30.14,North,-9999,-999.9,-999.0,110,0.00,,,0.00,open2300-1.11,2017-04-29 17:18:00,
2017-04-29 13:23:00,176.7,99.9,30.14,North,-9999,-999.9,-999.0,110,0.00,,,0.00,open2300-1.11,2017-04-29 17:23:00,
2017-04-29 13:28:00,176.7,99.9,30.14,North,-9999,-999.9,-999.0,110,0.00,,,0.00,open2300-1.11,2017-04-29 17:28:00,
2017-04-29 13:33:00,176.7,99.9,30.13,North,-9999,-999.9,-999.0,110,0.00,,,0.00,open2300-1.11,2017-04-29 17:33:00,
2017-04-29 13:38:00,176.7,99.9,30.13,North,-9999,-999.9,-999.0,110,0.00,,,0.00,open2300-1.11,2017-04-29 17:38:00,
2017-04-29 13:43:00,176.7,99.9,30.13,North,-9999,-999.9,-999.0,110,0.00,,,0.00,open2300-1.11,2017-04-29 17:43:00,
2017-04-29 13:48:00,176.7,99.9,30.13,North,-9999,-999.9,-999.0,110,0.00,,,0.00,open2300-1.11,2017-04-29 17:48:00,
2017-04-29 13:53:00,86.4,72.3,30.13,North,-9999,-999.9,-999.0,63,0.00,,,0.00,open2300-1.11,2017-04-29 17:53:00,
2017-04-29 13:58:00,86.4,72.3,30.13,North,-9999,-999.9,-999.0,63,0.00,,,0.00,open2300-1.11,2017-04-29 17:58:00,
2017-04-29 14:03:00,86.4,72.3,30.13,North,-9999,-999.9,-999.0,63,0.00,,,0.00,open2300-1.11,2017-04-29 18:03:00,
2017-04-29 14:08:00,86.4,72.3,30.13,North,-9999,-999.9,-999.0,63,0.00,,,0.00,open2300-1.11,2017-04-29 18:08:00,
2017-04-29 14:13:00,176.4,99.9,30.13,North,-9999,-999.9,-999.0,110,0.00,,,0.00,open2300-1.11,2017-04-29 18:13:00,
2017-04-29 14:18:00,176.4,99.9,30.13,North,-9999,-999.9,-999.0,110,0.00,,,0.00,open2300-1.11,2017-04-29 18:18:00,
2017-04-29 14:23:00,176.4,99.9,30.13,North,-9999,-999.9,-999.0,110,0.00,,,0.00,open2300-1.11,2017-04-29 18:23:00,
2017-04-29 14:28:00,176.4,99.9,30.13,North,-9999,-999.9,-999.0,110,0.00,,,0.00,open2300-1.11,2017-04-29 18:28:00,
2017-04-29 14:33:00,176.4,99.9,30.13,North,-9999,-999.9,-999.0,110,0.00,,,0.00,open2300-1.11,2017-04-29 18:33:00,
2017-04-29 14:38:00,176.4,99.9,30.12,North,-9999,-999.9,-999.0,110,0.00,,,0.00,open2300-1.11,2017-04-29 18:38:00,
2017-04-29 14:43:00,176.4,99.9,30.12,North,-9999,-999.9,-999.0,110,0.00,,,0.00,open2300-1.11,2017-04-29 18:43:00,
2017-04-29 14:48:00,176.4,99.9,30.13,North,-9999,-999.9,-999.0,110,0.00,,,0.00,open2300-1.11,2017-04-29 18:48:00,
2017-04-29 14:53:00,176.4,99.9,30.12,North,-9999,-999.9,-999.0,110,0.00,,,0.00,open2300-1.11,2017-04-29 18:53:00,
2017-04-29 14:58:00,176.4,99.9,30.13,North,-9999,-999.9,-999.0,110,0.00,,,0.00,open2300-1.11,2017-04-29 18:58:00,
2017-04-29 15:03:00,176.4,99.9,30.13,North,-9999,-999.9,-999.0,110,0.00,,,0.00,open2300-1.11,2017-04-29 19:03:00,
2017-04-29 15:08:00,176.4,99.9,30.12,North,-9999,-999.9,-999.0,110,0.00,,,0.00,open2300-1.11,2017-04-29 19:08:00,
2017-04-29 15:13:00,176.4,99.9,30.12,North,-9999,-999.9,-999.0,110,0.00,,,0.00,open2300-1.11,2017-04-29 19:13:00,
2017-04-29 15:18:00,176.4,99.9,30.12,North,-9999,-999.9,-999.0,110,0.00,,,0.00,open2300-1.11,2017-04-29 19:18:00,
2017-04-29 15:23:00,176.4,99.9,30.12,North,-9999,-999.9,-999.0,110,0.00,,,0.00,open2300-1.11,2017-04-29 19:23:00,
2017-04-29 15:28:00,176.4,99.9,30.11,North,-9999,-999.9,-999.0,110,0.00,,,0.00,open2300-1.11,2017-04-29 19:28:00,
2017-04-29 15:33:00,176.4,99.9,30.11,North,-9999,-999.9,-999.0,110,0.00,,,0.00,open2300-1.11,2017-04-29 19:33:00,
2017-04-29 15:38:00,176.4,99.9,30.11,North,-9999,-999.9,-999.0,110,0.00,,,0.00,open2300-1.11,2017-04-29 19:38:00,
2017-04-29 15:43:00,176.4,99.9,30.11,North,-9999,-999.9,-999.0,110,0.00,,,0.00,open2300-1.11,2017-04-29 19:43:00,
2017-04-29 15:48:00,176.4,99.9,30.10,North,-9999,-999.9,-999.0,110,0.00,,,0.00,open2300-1.11,2017-04-29 19:48:00,
2017-04-29 15:53:00,176.4,99.9,30.10,North,-9999,-999.9,-999.0,110,0.00,,,0.00,open2300-1.11,2017-04-29 19:53:00,
2017-04-29 15:58:00,176.4,99.9,30.10,North,-9999,-999.9,-999.0,110,0.00,,,0.00,open2300-1.11,2017-04-29 19:58:00,
2017-04-29 16:03:00,176.4,99.9,30.10,North,-9999,-999.9,-999.0,110,0.00,,,0.00,open2300-1.11,2017-04-29 20:03:00,
2017-04-29 16:08:00,176.4,99.9,30.09,North,-9999,-999.9,-999.0,110,0.00,,,0.00,open2300-1.11,2017-04-29 20:08:00,
2017-04-29 16:13:00,176.4,99.9,30.09,North,-9999,-999.9,-999.0,110,0.00,,,0.00,open2300-1.11,2017-04-29 20:13:00,
2017-04-29 16:18:00,176.4,99.9,30.09,North,-9999,-999.9,-999.0,110,0.00,,,0.00,open2300-1.11,2017-04-29 20:18:00,
2017-04-29 16:23:00,176.4,99.9,30.09,North,-9999,-999.9,-999.0,110,0.00,,,0.00,open2300-1.11,2017-04-29 20:23:00,
2017-04-29 16:28:00,176.4,99.9,30.09,North,-9999,-999.9,-999.0,110,0.00,,,0.00,open2300-1.11,2017-04-29 20:28:00,
2017-04-29 16:33:00,176.4,99.9,30.08,North,-9999,-999.9,-999.0,110,0.00,,,0.00,open2300-1.11,2017-04-29 20:33:00,
2017-04-29 16:38:00,176.4,99.9,30.09,North,-9999,-999.9,-999.0,110,0.00,,,0.00,open2300-1.11,2017-04-29 20:38:00,
2017-04-29 16:43:00,176.4,99.9,30.08,North,-9999,-999.9,-999.0,110,0.00,,,0.00,open2300-1.11,2017-04-29 20:43:00,
2017-04-29 16:53:00,87.6,69.4,30.08,North,-9999,-999.9,-999.0,55,0.00,,,0.00,open2300-1.11,2017-04-29 20:53:00,
2017-04-29 16:58:00,87.6,69.4,30.08,North,-9999,-999.9,-999.0,55,0.00,,,0.00,open2300-1.11,2017-04-29 20:58:00,
2017-04-29 17:03:00,87.6,69.4,30.08,North,-9999,-999.9,-999.0,55,0.00,,,0.00,open2300-1.11,2017-04-29 21:03:00,
2017-04-29 17:08:00,177.6,99.9,30.08,North,-9999,-999.9,-999.0,110,0.00,,,0.00,open2300-1.11,2017-04-29 21:08:00,
2017-04-29 17:13:00,177.6,99.9,30.08,North,-9999,-999.9,-999.0,110,0.00,,,0.00,open2300-1.11,2017-04-29 21:13:00,
2017-04-29 17:19:00,87.4,69.3,30.07,North,-9999,-999.9,-999.0,55,0.00,,,0.00,open2300-1.11,2017-04-29 21:19:00,
2017-04-29 17:24:00,87.4,69.3,30.08,North,-9999,-999.9,-999.0,55,0.00,,,0.00,open2300-1.11,2017-04-29 21:24:00,
2017-04-29 17:29:00,87.4,69.3,30.07,North,-9999,-999.9,-999.0,55,0.00,,,0.00,open2300-1.11,2017-04-29 21:29:00,
2017-04-29 17:34:00,87.4,69.3,30.07,North,-9999,-999.9,-999.0,55,0.00,,,0.00,open2300-1.11,2017-04-29 21:34:00,
2017-04-29 17:39:00,87.4,69.3,30.07,North,-9999,-999.9,-999.0,55,0.00,,,0.00,open2300-1.11,2017-04-29 21:39:00,
2017-04-29 17:44:00,87.1,68.4,30.07,North,-9999,-999.9,-999.0,54,0.00,,,0.00,open2300-1.11,2017-04-29 21:44:00,
2017-04-29 17:48:00,86.9,67.7,30.07,North,-9999,-999.9,-999.0,53,0.00,,,0.00,open2300-1.11,2017-04-29 21:48:00,
2017-04-29 17:53:00,86.9,67.7,30.07,North,-9999,-999.9,-999.0,53,0.00,,,0.00,open2300-1.11,2017-04-29 21:53:00,
2017-04-29 17:59:00,86.9,67.7,30.07,North,-9999,-999.9,-999.0,53,0.00,,,0.00,open2300-1.11,2017-04-29 21:59:00,
2017-04-29 18:04:00,86.5,67.9,30.06,North,-9999,-999.9,-999.0,54,0.00,,,0.00,open2300-1.11,2017-04-29 22:04:00,
2017-04-29 18:09:00,86.5,67.9,30.07,North,-9999,-999.9,-999.0,54,0.00,,,0.00,open2300-1.11,2017-04-29 22:09:00,
2017-04-29 18:14:00,86.7,68.1,30.06,North,-9999,-999.9,-999.0,54,0.00,,,0.00,open2300-1.11,2017-04-29 22:14:00,
2017-04-29 18:19:00,86.7,68.1,30.06,North,-9999,-999.9,-999.0,54,0.00,,,0.00,open2300-1.11,2017-04-29 22:19:00,
2017-04-29 18:24:00,86.5,67.9,30.06,North,-9999,-999.9,-999.0,54,0.00,,,0.00,open2300-1.11,2017-04-29 22:24:00,
2017-04-29 18:29:00,86.5,67.9,30.06,North,-9999,-999.9,-999.0,54,0.00,,,0.00,open2300-1.11,2017-04-29 22:29:00,
2017-04-29 18:34:00,86.4,67.2,30.07,North,-9999,-999.9,-999.0,53,0.00,,,0.00,open2300-1.11,2017-04-29 22:34:00,
2017-04-29 18:39:00,86.2,67.0,30.07,North,-9999,-999.9,-999.0,53,0.00,,,0.00,open2300-1.11,2017-04-29 22:39:00,
2017-04-29 18:44:00,86.2,67.0,30.06,North,-9999,-999.9,-999.0,53,0.00,,,0.00,open2300-1.11,2017-04-29 22:44:00,
2017-04-29 18:49:00,85.8,67.2,30.06,North,-9999,-999.9,-999.0,54,0.00,,,0.00,open2300-1.11,2017-04-29 22:49:00,
2017-04-29 18:54:00,85.8,67.2,30.06,North,-9999,-999.9,-999.0,54,0.00,,,0.00,open2300-1.11,2017-04-29 22:54:00,
2017-04-29 18:59:00,85.8,67.2,30.06,North,-9999,-999.9,-999.0,54,0.00,,,0.00,open2300-1.11,2017-04-29 22:59:00,
2017-04-29 19:04:00,177.6,99.9,30.07,North,-9999,-999.9,-999.0,110,0.00,,,0.00,open2300-1.11,2017-04-29 23:04:00,
2017-04-29 19:09:00,177.6,99.9,30.07,North,-9999,-999.9,-999.0,110,0.00,,,0.00,open2300-1.11,2017-04-29 23:09:00,
2017-04-29 19:14:00,177.6,99.9,30.07,North,-9999,-999.9,-999.0,110,0.00,,,0.00,open2300-1.11,2017-04-29 23:14:00,
2017-04-29 19:19:00,177.6,99.9,30.06,North,-9999,-999.9,-999.0,110,0.00,,,0.00,open2300-1.11,2017-04-29 23:19:00,
2017-04-29 19:24:00,84.6,67.1,30.06,North,-9999,-999.9,-999.0,56,0.00,,,0.00,open2300-1.11,2017-04-29 23:24:00,
2017-04-29 19:29:00,84.6,67.1,30.06,North,-9999,-999.9,-999.0,56,0.00,,,0.00,open2300-1.11,2017-04-29 23:29:00,
2017-04-29 19:34:00,84.4,67.0,30.07,North,-9999,-999.9,-999.0,56,0.00,,,0.00,open2300-1.11,2017-04-29 23:34:00,
2017-04-29 19:39:00,84.4,67.0,30.06,North,-9999,-999.9,-999.0,56,0.00,,,0.00,open2300-1.11,2017-04-29 23:39:00,
2017-04-29 19:44:00,84.2,66.8,30.07,North,-9999,-999.9,-999.0,56,0.00,,,0.00,open2300-1.11,2017-04-29 23:44:00,
2017-04-29 19:49:00,84.2,67.3,30.07,North,-9999,-999.9,-999.0,57,0.00,,,0.00,open2300-1.11,2017-04-29 23:49:00,
2017-04-29 19:54:00,84.2,67.3,30.07,North,-9999,-999.9,-999.0,57,0.00,,,0.00,open2300-1.11,2017-04-29 23:54:00,
2017-04-29 19:59:00,83.8,67.0,30.07,North,-9999,-999.9,-999.0,57,0.00,,,0.00,open2300-1.11,2017-04-29 23:59:00,
2017-04-29 20:04:00,83.5,66.6,30.07,North,-9999,-999.9,-999.0,57,0.00,,,0.00,open2300-1.11,2017-04-30 00:04:00,
2017-04-29 20:09:00,83.3,67.0,30.07,North,-9999,-999.9,-999.0,58,0.00,,,0.00,open2300-1.11,2017-04-30 00:09:00,
2017-04-29 20:14:00,83.1,66.8,30.07,North,-9999,-999.9,-999.0,58,0.00,,,0.00,open2300-1.11,2017-04-30 00:14:00,
2017-04-29 20:19:00,82.9,66.6,30.08,North,-9999,-999.9,-999.0,58,0.00,,,0.00,open2300-1.11,2017-04-30 00:19:00,
2017-04-29 20:24:00,82.9,66.6,30.08,North,-9999,-999.9,-999.0,58,0.00,,,0.00,open2300-1.11,2017-04-30 00:24:00,
2017-04-29 20:29:00,82.6,66.8,30.08,North,-9999,-999.9,-999.0,59,0.00,,,0.00,open2300-1.11,2017-04-30 00:29:00,
2017-04-29 20:34:00,82.6,66.8,30.08,North,-9999,-999.9,-999.0,59,0.00,,,0.00,open2300-1.11,2017-04-30 00:34:00,
2017-04-29 20:39:00,82.2,66.9,30.08,North,-9999,-999.9,-999.0,60,0.00,,,0.00,open2300-1.11,2017-04-30 00:39:00,
2017-04-29 20:44:00,82.2,66.9,30.08,North,-9999,-999.9,-999.0,60,0.00,,,0.00,open2300-1.11,2017-04-30 00:44:00,
2017-04-29 20:49:00,82.0,66.8,30.08,North,-9999,-999.9,-999.0,60,0.00,,,0.00,open2300-1.11,2017-04-30 00:49:00,
2017-04-29 20:54:00,82.0,66.8,30.09,North,-9999,-999.9,-999.0,60,0.00,,,0.00,open2300-1.11,2017-04-30 00:54:00,
2017-04-29 20:59:00,81.7,66.9,30.09,North,-9999,-999.9,-999.0,61,0.00,,,0.00,open2300-1.11,2017-04-30 00:59:00,
2017-04-29 21:04:00,81.5,66.7,30.08,North,-9999,-999.9,-999.0,61,0.00,,,0.00,open2300-1.11,2017-04-30 01:04:00,
2017-04-29 21:09:00,81.5,66.7,30.09,North,-9999,-999.9,-999.0,61,0.00,,,0.00,open2300-1.11,2017-04-30 01:09:00,
2017-04-29 21:14:00,81.3,67.0,30.09,North,-9999,-999.9,-999.0,62,0.00,,,0.00,open2300-1.11,2017-04-30 01:14:00,